Regional Weather Roundup
Issued by NWS

Home | Current Version | Previous Version | Graphics & Text | Print | Product List | Glossary On
Versions: 1 2 3 4 5 6 7 8 9 10 11 12 13 14 15 16 17 18 19 20 21 22 23 24 25 26 27 28 29 30 31 32 33 34 35 36 37 38 39 40 41 42 43 44 45 46 47 48 49 50
914
ASUS43 KTOP 071359
RWRKS

WEATHER ROUNDUP FOR KANSAS
NATIONAL WEATHER SERVICE GOODLAND KS
800 AM CST SUN FEB 07 2016

NOTE:  "FAIR" INDICATES FEW OR NO CLOUDS BELOW 12,000 FEET WITH NO
SIGNIFICANT WEATHER AND/OR OBSTRUCTIONS TO VISIBILITY.

KSZ001>006-013>018-027>032-041>047-071500-
NORTHWEST KANSAS

CITY           SKY/WX    TMP DP  RH WIND       PRES   REMARKS
GOODLAND       CLEAR     26  15  63 NW14      30.19R WCI  14
HAYS           CLOUDY    36  21  55 NW12      30.15R WCI  27
HILL CITY      PTCLDY    34  25  69 NW8       30.16R
RUSSELL        PTCLDY    35  29  78 W7        30.14R
$$

KSZ061>065-074>080-084>089-071500-
SOUTHWEST KANSAS

CITY           SKY/WX    TMP DP  RH WIND       PRES   REMARKS
DODGE CITY     PTCLDY    29  23  78 NW10      30.18R WCI  20
ELKHART          N/A     33  19  56 NW6         N/A
GARDEN CITY    CLOUDY    33  25  72 NW9       30.18R
GREAT BEND     CLOUDY    36  25  64 NW9       30.16R
LIBERAL        CLOUDY    27  18  69 NW8       30.20R
$$

KSZ066>073-081>083-090>101-071500-
SOUTHEAST KANSAS

CITY           SKY/WX    TMP DP  RH WIND       PRES   REMARKS
CHANUTE        MOCLDY    36  27  69 SW8       30.08S
COFFEYVILLE    CLOUDY    34  28  79 S8        30.12S
HUTCHINSON     CLOUDY    37  27  67 W8        30.12R
MEDICINE LODGE   N/A     35  27  72 N10       30.14R WCI  27
NEWTON         CLOUDY    36  25  64 NW9       30.11S
PARSONS        CLOUDY    35  28  75 SW6       30.12R
WICHITA INTL   CLOUDY    39  27  62 N8        30.08F
WICHITA JABRA  CLOUDY    36  26  67 NW9       30.09R
WINFIELD       PTCLDY    31  26  82 SW6       30.13R
$$

KSZ007>012-019>026-033>040-048>060-102>105-071500-
NORTHEAST KANSAS

CITY           SKY/WX    TMP DP  RH WIND       PRES   REMARKS
CONCORDIA      PTCLDY    36  26  67 W8        30.10R
EMPORIA        CLOUDY    37  27  67 W7        30.08R
LAWRENCE       CLOUDY    37  28  70 NW7       30.05R
MANHATTAN      PTCLDY    36  28  73 W3        30.10R
OLATHE IND     CLOUDY    38  27  64 W8        30.04R
OLATHE EXE     CLOUDY    38  26  62 W8        30.03R
SALINA         CLOUDY    39  28  64 W5        30.13R
TOPEKA BILLARD CLOUDY    38  27  64 W8        30.06R
TOPEKA FORBES  CLOUDY    40  28  62 NW8       30.05R
$$




USA.gov is the U.S. government's official web portal to all federal, state and local government web resources and services.